Regional Weather Roundup
Issued by NWS

Home | Current Version | Previous Version | Text Only | Print | Product List | Glossary Off
Versions: 1 2 3 4 5 6 7 8 9 10 11 12 13 14 15 16 17 18 19 20 21 22 23 24 25 26 27 28 29 30 31 32 33 34 35 36 37 38 39 40 41 42 43 44 45 46 47 48 49 50

000
ASUS43 KMKX 221700
RWRWI

WISCONSIN REGIONAL WEATHER ROUNDUP
NATIONAL WEATHER SERVICE MILWAUKEE/SULLIVAN WI
1200 PM CDT SUN OCT 22 2017

NOTE: "FAIR" INDICATES FEW OR NO CLOUDS BELOW 12,000 FEET WITH NO
SIGNIFICANT WEATHER AND/OR OBSTRUCTIONS TO VISIBILITY.

WIZ001-002-006>008-014>016-023>028-221800-
NORTHWEST WISCONSIN

CITY           SKY/WX    TMP DP  RH WIND       PRES   REMARKS
SUPERIOR ARPT  CLOUDY    51  42  70 SW12G17   29.91S
ASHLAND        CLOUDY    51  40  65 SW15G21   29.92R
HAYWARD        CLOUDY    50  39  66 SW10      29.95R
SIREN          PTSUNNY   51  40  64 W10       29.96S
CUMBERLAND     CLOUDY    48  37  66 W8        29.97S
RICE LAKE      CLOUDY    50  42  73 W5        29.99S
CHETEK         CLOUDY    50  41  71 W5        29.99R
LADYSMITH      CLOUDY    50  43  76 W7        29.98S
EAU CLAIRE     NOT AVBL
MENOMONIE      CLOUDY    51  42  69 SW6       29.99F
NEW RICHMOND   PTSUNNY   53  38  57 W10       29.99S
OSCEOLA        CLOUDY    54  41  60 SW7       30.01F
$$

WIZ003>005-009-010-017-018-221800-
NORTH CENTRAL WISCONSIN

CITY           SKY/WX    TMP DP  RH WIND       PRES   REMARKS
MANITOWISH WTR CLOUDY    47  47 100 W6        29.93R
ARBOR VITAE    DRIZZLE   49  47  91 W6        29.94R
WOODRUFF       DRIZZLE   49  47  91 W6        29.94R
RHINELANDER    LGT RAIN  48  47  96 W8        29.96R
EAGLE RIVER    NOT AVBL
LAND O LAKES   DRIZZLE   48  45  87 W6        29.95R
PHILLIPS       CLOUDY    47  45  90 W3        29.95R
TOMAHAWK       CLOUDY    47  44  90 CALM      29.95S
MEDFORD        CLOUDY    48  43  84 W9        29.97R
MERRILL        LGT RAIN  49  47  95 W6        29.97R
$$

WIZ029-030-035-036-043>047-221800-
CENTRAL WISCONSIN

CITY           SKY/WX    TMP DP  RH WIND       PRES   REMARKS
WAUSAU         LGT RAIN  49  46  90 W7        29.96R
MOSINEE        LGT RAIN  48  48 100 W7        29.98R
MARSHFIELD     LGT RAIN  50  45  83 W8        29.98R
STEVENS POINT  LGT RAIN  49  47  96 NW6       29.98R
WAUPACA        RAIN      54  50  89 NW5       29.98R
WAUTOMA        LGT RAIN N/A N/A N/A W7        30.00R
WISC RAPIDS    LGT RAIN  50  48  93 NW3       30.00R
CAMP DOUGLAS   NOT AVBL
$$

WIZ011>013-019>022-031-037>040-048>050-221800-
NORTHEAST WISCONSIN

CITY           SKY/WX    TMP DP  RH WIND       PRES   REMARKS
ANTIGO         CLOUDY    48  47  94 W10       29.95S
SHAWANO        CLOUDY    53  48  82 NW3       29.94S
OCONTO         CLOUDY    53  49  87 NW12G23   29.94R
STURGEON BAY   RAIN      56  54  93 W12       29.93R
GREEN BAY      LGT RAIN  51  51 100 NW14      29.98R
MANITOWOC      LGT RAIN  56  54  93 NW15      29.94
APPLETON       CLOUDY    50  48  93 MISG      29.96R FOG
CLINTONVILLE   LGT RAIN  52  48  87 W8        29.98R
OSHKOSH        CLOUDY    51  48  89 NW7       29.96F
$$

WIZ032>034-041-042-053>061-221800-
SOUTHWEST WISCONSIN

CITY           SKY/WX    TMP DP  RH WIND       PRES   REMARKS
LA CROSSE      CLOUDY    55  45  68 W6        30.02R
SPARTA         CLOUDY    50  47  90 CALM      30.02R
VIROQUA        CLOUDY    50  48  93 NW3       30.01R
BOSCOBEL       LGT RAIN  54  49  83 CALM      30.03S
PRAIRIE DU CHI CLOUDY    53  45  72 NW8       30.03R
PLATTEVILLE    CLOUDY    51  51  98 NW10      30.03R
$$

WIZ056-057-062-063-064-067-068-221800-
SOUTH CENTRAL WISCONSIN

CITY           SKY/WX    TMP DP  RH WIND       PRES   REMARKS
REEDSBURG      LGT RAIN  51  51 100 W6        30.00R
BARABOO/DELLS  CLOUDY    50  48  91 W7        30.00R
LONE ROCK      NOT AVBL
MINERAL POINT  LGT RAIN  52  52 100 NW10      30.02R
MADISON        RAIN      52  49  89 NW12      30.00R FOG
MIDDLETON      CLOUDY    53  50  89 NW10G17   30.01R
WATERTOWN      LGT RAIN  49  49 100 NW14G20   29.96R
MONROE         DRIZZLE   52  50  93 NW9G16    29.98R
JANESVILLE     LGT RAIN  55  55 100 NW13G18   29.95R FOG
$$

WIZ051-052-058>065-066-070>072-221800-
SOUTHEAST WISCONSIN

CITY           SKY/WX    TMP DP  RH WIND       PRES   REMARKS
MILWAUKEE      LGT RAIN  66  63  90 S12       29.92S
WAUKESHA       LGT RAIN  61  59  94 SW12      29.94R FOG
MILWAUKEE/TIMM RAIN      63  59  88 S9        29.92R FOG
RACINE         CLOUDY    64  62  93 S7        29.94S
BURLINGTON     CLOUDY    63  63 100 S7        29.92S
KENOSHA        LGT RAIN  66  61  84 S10       29.93S
FOND DU LAC    CLOUDY    51  46  83 NW12      29.98R
SHEBOYGAN      LGT RAIN  55  55 100 NW14G21   29.95R
WEST BEND      LGT RAIN  54  54 100 NW12G17   29.95R
JUNEAU         DRIZZLE   49  48  95 NW7G23    29.99R
$$

LSZ147-162-221800-
LAKE SUPERIOR

STATION/POSITION TIME  TEMP    WIND        PRES    WAVE
                       AIR SEA DIR/SP/G            HT/PER
                 (UTC) (F)     (DEG/KT/KT) (MB)    (FT/S)
W MID LAKE BUOY  1550   52 51              1010.4R   5/ 6
DEVILS ISLAND    1600   52     240/ 23/ 28 1011.7R
SAXON HARBOR     1640   53     220/  8/ 14 1012.5S
$$

LMZ867-665-643>646-221800-
LAKE MICHIGAN

STATION/POSITION TIME  TEMP    WIND        PRES    WAVE
                       AIR SEA DIR/SP/G            HT/PER
                 (UTC) (F)     (DEG/KT/KT) (MB)    (FT/S)
S GREEN BAY BUOY 1630   56 58  290/ 14/ 17 1013.2R
N MID LAKE BUOY  1550   62 58  180/ 17/ 21 1012.7F   6/ 7
NORTHPORT PIER   1640   59     160/  8/ 14 1012.2S
KEWAUNEE LAKESHO 1630   56     270/  7/ 15 1013.4R
SHEBOYGAN LAKESH 1600   57     180/ 18/ 19 1012.4S
PORT WASHINGTON  1630   55     200/  7/ 10 1014.2R
ATWATER BUOY     1509   56 52  160/ 16/ 19 1013.1R
MILWAUKEE LAKESH 1650   56     150/ 10/ 11   N/A
S MID LAKE BUOY  1550   63 61  170/ 17/ 21 1014.5R   4/ 5
KENOSHA   LAKESH 1600   57     180/  9/ 14 1013.5
$$

TC  - TEMPERATURE IN CELSIUS
VSB - VISIBILITY IN STATUTE MILES
WCI - WIND CHILL INDEX
HX  - HEAT INDEX




USA.gov is the U.S. government's official web portal to all federal, state and local government web resources and services.